RH
81 82 85 76 70 78 98 97 100 80 77 99 100 100 90 77 87 70 74 75 76 78 77 83 88 85 75 70 81 92 74 97 95 84 69 62 69 74 73 92 84 90 80 72
81 84 85 75 73 82 99 98 96 100 85 99 97 97 95 85 84 74 66 78 75 74 85 90 75 76 67 76 80 90 76 98 95 74 85 77 81 75 66 72 82 92 92 62
82 85 85 78 77 86 100 100 100 98 96 94 94 100 99 92 76 77 74 84 78 82 88 79 83 78 71 70 72 70 66 86 82 76 65 80 96 88 76 91 97 79 80 65
80 84 84 80 76 92 100 97 99 92 99 99 92 89 85 88 80 77 73 90 81 86 95 85 86 76 76 74 72 70 82 98 84 79 80 80 84 85 94 99 91 94 61 60
81 84 84 78 76 93 94 100 98 94 90 86 86 98 94 89 92 82 85 84 81 82 85 75 79 74 85 73 81 79 80 89 85 84 65 68 98 93 96 96 95 95 94 92
82 86 85 77 80 90 97 93 91 99 93 97 99 96 88 79 78 79 73 78 84 89 74 63 63 84 84 81 85 88 91 93 88 89 79 93 99 96 96 93 89 86 97 80
84 86 84 78 80 90 100 94 98 99 98 96 94 83 81 84 77 86 81 76 81 87 83 86 88 94 93 80 87 82 91 95 89 98 96 98 85 87 90 96 86 77 77 73
73 86 85 82 80 87 99 98 99 99 98 89 80 79 80 85 86 87 78 82 78 86 88 98 97 94 99 93 95 88 84 87 99 100 98 78 66 87 85 95 81 69 69 59
72 86 87 80 80 88 94 94 100 99 93 92 74 88 75 89 86 89 79 89 90 92 94 100 98 98 84 98 96 85 92 83 98 99 98 94 65 51 55 86 86 67 60 58
77 85 89 77 78 92 93 93 100 99 98 83 76 87 86 80 88 93 90 94 96 90 99 100 96 90 77 97 92 94 99 100 96 100 98 83 60 56 58 62 59 50 57 58
88 88 78 79 80 91 93 89 100 100 99 87 76 76 90 90 87 95 97 97 98 98 100 100 88 92 94 84 80 88 91 96 98 97 99 90 50 54 51 51 58 56 64 66
80 76 81 81 92 90 92 90 84 96 99 89 92 80 72 69 70 89 97 93 96 91 98 97 90 94 96 88 93 83 88 77 86 83 78 56 57 57 51 61 65 66 80 75
73 74 77 90 95 92 93 93 88 98 99 90 92 83 86 80 77 72 94 96 92 97 87 87 90 84 88 95 92 86 81 79 83 78 62 72 67 61 60 74 75 83 81 80
82 80 85 85 90 94 93 96 88 98 98 95 84 88 90 92 95 96 95 93 95 94 96 97 93 88 85 90 80 85 80 83 82 84 74 70 61 67 62 82 83 81 75 72
76 77 81 83 90 94 94 83 80 87 97 98 95 90 94 94 100 99 100 97 95 96 99 98 93 94 89 90 84 93 88 82 86 74 64 60 59 63 77 80 82 76 71 70
89 87 87 92 93 95 86 98 96 95 99 100 100 90 92 97 100 100 98 97 98 99 95 92 93 88 86 98 96 73 78 77 67 61 57 64 73 74 73 82 81 75 67 63
93 95 96 93 81 97 94 94 98 96 100 100 98 95 85 87 94 97 98 97 98 99 98 99 95 93 89 95 97 67 71 70 65 60 63 64 71 72 78 78 74 68 64 60
98 98 98 97 92 88 95 76 84 89 100 96 100 99 91 83 98 99 98 98 98 99 97 97 97 94 93 100 83 75 64 68 69 73 67 72 84 83 83 76 70 70 68 65
90 94 83 85 96 99 92 99 99 96 95 100 100 100 99 88 95 96 98 97 100 96 99 98 98 96 99 84 77 69 78 73 72 84 86 87 86 88 85 80 78 73 74 68
75 76 98 100 96 90 100 100 99 99 95 95 99 90 97 92 95 99 97 98 100 100 96 94 100 98 85 82 80 81 78 74 86 87 98 98 98 92 88 81 74 70 69 66
92 99 100 100 100 96 97 100 97 100 100 96 84 94 96 92 99 100 98 100 100 99 92 98 93 94 87 85 85 85 82 84 77 71 69 78 80 84 85 84 78 72 68 66
100 100 99 100 97 100 95 100 100 100 97 96 99 96 92 99 95 98 99 95 97 96 93 99 95 86 80 87 88 88 85 82 77 78 86 87 83 81 80 78 77 74 68 62
93 95 100 100 100 100 99 99 99 99 97 100 99 99 96 96 91 97 96 95 96 86 97 95 92 83 80 88 92 92 88 86 88 90 88 83 83 78 76 76 70 65 63 62
97 100 99 100 100 99 98 97 97 95 99 100 97 98 96 94 98 98 99 95 91 98 99 93 81 74 82 90 93 90 92 90 92 92 86 83 80 78 72 68 65 62 61 59
100 99 99 99 99 97 98 98 98 96 99 98 95 96 86 95 96 90 94 95 98 96 88 88 85 80 90 92 94 94 94 94 94 90 84 82 77 73 72 66 63 62 60 58
99 95 97 96 96 97 96 99 100 99 98 96 96 92 91 91 93 94 99 94 92 78 92 94 98 93 90 92 94 93 93 93 94 89 82 78 75 73 73 68 65 63 60 59
92 98 95 99 99 98 97 98 98 94 95 98 95 87 78 91 98 98 92 88 82 92 94 98 97 95 90 93 94 94 94 94 92 85 83 82 76 72 70 75 76 66 63 59
Wind_Speed
29 28 28 29 30 34 17 4 2 9 27 5 3 3 4 2 2 3 4 5 5 6 6 5 5 5 3 5 7 8 8 2 5 9 7 12 6 10 12 5 5 5 9 21
27 27 26 28 29 32 17 5 3 16 13 4 7 4 2 2 2 1 2 4 3 2 5 6 5 4 5 8 7 8 8 4 2 7 3 3 6 9 16 14 10 17 11 14
27 25 25 27 28 32 24 2 1 3 1 2 6 5 4 3 5 2 5 5 5 4 3 1 5 3 3 9 8 11 12 5 6 5 4 3 5 9 15 19 10 16 25 33
25 24 24 27 29 35 16 2 2 1 3 3 6 3 6 6 4 2 3 4 4 6 4 4 5 6 1 3 6 6 8 4 8 14 15 15 18 20 21 18 25 14 29 20
23 23 23 25 27 32 4 4 3 1 3 9 7 4 6 7 2 5 3 5 8 5 6 6 5 6 7 4 2 8 7 3 2 11 14 16 20 22 20 19 20 20 24 27
22 23 22 24 25 28 4 4 5 3 9 6 5 4 7 7 7 4 4 7 5 7 8 5 3 2 1 2 3 6 6 3 2 6 7 13 8 8 8 4 6 6 11 9
20 22 22 23 23 25 8 7 5 3 3 6 5 8 4 5 5 4 1 5 6 2 7 5 2 5 8 9 7 4 3 4 2 5 7 3 2 4 9 10 10 13 8 11
19 20 20 21 21 24 19 14 3 3 2 5 9 10 8 4 5 5 4 3 5 9 4 2 3 2 3 7 10 9 8 1 3 3 3 7 6 5 3 4 4 5 4 3
17 18 18 20 19 24 23 21 9 3 1 5 6 5 6 4 5 2 5 3 7 8 3 3 5 4 5 4 2 7 6 8 4 1 3 3 4 2 1 3 5 2 3 4
17 19 18 20 17 23 23 11 8 5 1 1 4 3 6 4 3 1 3 4 1 6 4 3 3 4 5 5 7 6 5 3 9 4 4 7 7 4 1 1 3 5 7 2
18 17 19 18 19 21 21 18 11 8 2 3 2 2 4 3 2 3 3 1 3 4 4 3 3 3 5 3 4 6 7 6 4 4 4 7 1 2 2 3 4 3 4 4
20 19 17 18 19 19 19 6 21 20 3 3 2 3 1 3 6 4 3 1 1 4 3 2 2 2 2 3 4 1 4 6 5 8 6 5 3 5 4 2 4 3 3 1
19 18 19 21 18 17 15 12 20 7 1 3 2 3 3 6 6 9 3 3 3 3 3 2 2 2 3 4 4 3 4 4 2 1 4 7 7 4 3 2 1 1 2 4
17 17 18 19 19 17 15 12 16 9 3 1 2 0 1 2 6 9 7 2 1 2 2 2 2 2 2 3 2 3 4 5 4 5 9 6 6 5 2 4 4 5 5 4
19 18 18 18 18 19 19 21 19 13 3 1 1 1 1 1 4 4 3 3 2 2 2 2 3 1 3 1 1 3 5 6 4 5 4 2 3 2 4 5 4 6 7 9
20 18 18 17 16 15 9 3 1 9 7 2 2 1 2 1 2 3 3 2 2 2 2 1 2 1 2 1 3 6 5 4 5 3 2 3 3 4 2 5 5 6 9 9
22 21 17 13 13 10 4 4 1 5 2 2 2 2 2 3 2 1 2 2 2 1 1 2 2 1 3 1 3 5 5 7 5 2 4 2 4 3 5 9 10 10 13 12
24 20 15 13 8 8 8 12 7 8 3 0 0 2 2 3 1 1 1 1 1 2 1 1 2 2 2 4 8 5 1 2 2 5 1 2 7 7 8 9 11 11 12 11
10 7 5 4 3 2 5 4 9 9 2 1 1 1 2 1 1 0 0 1 2 1 2 1 1 3 5 7 5 4 6 5 4 4 5 7 7 9 9 10 9 13 9 10
11 7 3 2 5 4 12 3 2 1 1 1 2 1 1 0 1 0 0 1 1 1 1 2 2 3 6 1 1 2 4 3 7 5 3 5 5 9 10 6 8 9 11 11
3 1 1 4 5 3 2 1 1 1 2 2 2 3 2 1 1 1 1 1 0 0 1 1 2 3 3 5 3 3 2 6 5 1 1 6 10 12 11 9 9 10 11 12
8 9 6 3 2 2 2 1 1 2 3 1 1 1 1 0 1 2 1 1 1 3 2 1 3 3 2 3 3 3 1 5 3 3 6 8 11 10 11 12 12 12 19 22
2 4 3 1 1 3 3 4 3 2 2 1 0 0 1 1 2 2 1 1 2 1 1 3 4 2 2 3 2 3 4 5 6 6 7 11 10 16 16 13 18 22 20 19
2 2 1 0 2 2 1 0 1 1 1 2 0 1 1 1 2 1 1 1 0 1 2 5 2 2 2 2 2 2 4 5 7 8 10 12 13 12 17 20 23 25 20 20
2 1 1 0 2 0 0 0 1 2 1 1 1 2 1 1 2 1 2 1 3 4 4 3 3 2 1 1 1 3 4 4 5 5 9 11 14 14 15 17 20 23 25 24
2 4 2 1 1 2 2 2 2 1 1 0 0 2 1 2 3 2 5 4 5 4 3 2 1 2 0 0 2 3 4 5 5 5 9 13 14 14 17 21 20 20 24 24
2 2 1 0 1 1 1 1 2 3 1 2 1 4 7 2 2 3 4 5 3 3 2 2 3 2 2 3 4 5 5 6 6 10 12 15 19 23 22 14 16 24 24 28
Wind_Direction
330 333 334 336 336 333 335 291 261 168 156 145 85 144 159 140 157 69 99 98 96 133 144 152 205 204 232 178 144 175 190 208 233 226 213 188 180 201 208 221 234 226 266 270
332 335 337 338 338 334 338 314 291 142 150 124 152 150 79 74 116 80 116 97 93 130 140 142 221 176 178 154 158 166 162 211 325 326 72 74 212 220 223 232 259 243 253 264
334 338 339 338 338 334 330 262 331 26 66 21 117 130 153 115 18 47 77 106 79 101 97 184 157 209 164 195 188 185 179 196 190 203 207 149 201 227 232 227 242 253 239 268
337 340 341 340 340 340 337 259 69 66 140 179 151 97 144 125 148 62 83 67 144 148 136 184 207 193 254 220 214 197 174 246 236 258 265 267 267 264 254 229 233 235 273 277
341 342 342 344 342 340 11 331 341 135 127 149 169 123 167 139 190 145 180 126 179 172 154 173 183 175 191 217 100 176 176 243 290 284 269 261 267 265 268 261 246 244 256 274
343 342 342 347 343 347 342 292 249 248 155 131 140 176 164 183 136 223 170 173 141 194 218 188 195 230 10 118 190 181 171 210 251 266 307 294 269 277 269 258 226 226 221 243
341 343 341 347 344 342 333 323 290 298 163 158 172 168 112 135 175 126 186 142 157 86 80 68 66 229 221 235 262 234 202 185 230 289 318 276 273 153 283 290 277 207 254 267
338 340 340 343 340 338 347 327 261 276 106 169 178 156 162 148 219 241 247 209 139 124 89 144 157 181 194 226 232 220 209 256 277 270 260 284 286 172 244 325 304 191 250 289
336 336 339 339 341 339 346 332 310 286 124 199 129 133 162 171 206 197 242 67 149 150 131 179 197 185 193 192 236 198 180 216 242 328 312 283 254 171 97 129 319 138 203 2
335 336 337 339 341 342 345 308 310 294 309 256 135 160 179 151 156 222 116 132 210 164 178 180 184 213 176 169 177 158 156 181 222 241 261 283 254 280 355 191 235 318 316 16
334 336 336 342 338 342 348 317 19 336 331 304 15 113 124 118 176 174 131 146 193 167 196 180 195 169 211 179 174 173 163 167 186 195 224 270 211 347 150 244 299 268 287 304
332 331 332 331 332 336 343 315 325 332 254 272 316 272 255 228 176 141 164 202 253 163 197 232 139 164 172 169 207 113 186 187 181 187 214 242 235 217 251 209 241 281 269 253
326 325 324 329 330 330 336 321 324 327 293 314 358 259 227 208 182 174 151 201 234 200 165 200 205 167 138 176 232 187 230 179 202 352 261 252 274 269 205 25 57 329 360 105
320 322 323 329 331 327 321 307 294 292 269 229 282 301 234 256 206 208 207 139 266 296 148 217 195 176 182 206 228 192 204 133 196 266 281 275 273 243 131 93 88 74 50 73
315 314 313 311 315 318 311 297 276 248 269 319 286 217 286 256 166 177 200 185 200 243 186 211 225 171 133 167 73 251 188 189 169 222 235 154 283 25 119 119 112 101 104 88
307 303 301 301 304 320 330 307 280 231 216 299 327 276 235 160 195 210 226 205 225 241 217 256 233 218 140 193 241 250 211 213 191 219 130 119 102 87 89 102 95 95 92 102
304 300 297 291 293 282 226 269 260 13 319 265 314 302 289 157 166 217 224 185 256 273 268 228 177 257 165 253 229 250 206 215 237 210 123 117 182 184 119 109 100 96 90 88
298 290 281 284 269 274 272 273 268 207 231 298 345 283 329 170 244 230 333 179 197 169 286 253 208 134 162 254 246 279 272 95 137 171 79 81 108 97 102 114 115 111 106 110
296 234 175 169 187 218 244 233 161 166 225 212 145 216 264 9 275 16 6 326 197 85 246 224 260 172 219 228 240 247 206 198 181 104 107 113 124 133 131 128 123 120 122 120
95 121 167 175 211 223 132 135 133 51 338 64 231 189 213 186 335 358 356 6 69 313 315 324 231 256 258 315 19 342 330 163 135 110 96 128 142 150 146 142 133 130 127 122
359 315 359 324 141 113 29 69 124 117 294 224 243 212 159 228 197 197 18 180 13 244 293 285 267 270 266 352 338 360 318 175 193 293 200 161 151 148 135 115 111 117 121 120
314 292 304 308 56 66 107 111 9 205 241 296 230 205 101 71 330 100 5 113 48 243 331 275 261 258 294 331 345 338 98 145 80 46 112 111 121 128 125 125 119 112 117 121
27 11 356 38 346 121 182 177 219 230 345 286 254 63 99 123 53 61 57 217 231 20 266 244 237 270 292 306 332 39 40 93 100 91 89 101 103 113 123 119 121 123 118 124
65 8 309 158 159 243 200 357 132 276 260 285 156 75 75 17 66 43 249 19 349 272 256 241 257 266 288 334 333 135 134 126 120 116 115 114 115 112 118 126 132 128 125 130
100 106 231 76 13 247 336 245 269 241 250 238 90 62 119 52 97 21 73 336 255 217 234 236 260 289 265 309 60 129 123 113 106 119 126 125 126 123 117 125 130 129 129 125
74 28 59 322 75 7 1 11 290 266 255 343 43 137 100 208 139 111 218 141 230 252 225 244 267 246 310 77 101 111 118 114 108 107 117 119 122 122 114 110 115 121 125 125
80 59 23 27 193 232 292 326 303 325 295 238 142 176 215 81 71 263 196 211 229 234 275 253 226 226 191 151 129 125 117 110 107 110 107 108 116 120 117 109 106 119 124 126